COSMOS 1041

Satellite information

Favourite Embed

Satellite Type and Status

PAYLOADIN ORBIT

Key statistics

Satellite COSMOS 1041 at a glance.

Uptime

17193

Days in orbit

Revolutions

≈ 12.4

Per day

Orbit

LEO

Low Earth Orbit

Inclination

74.0

Latest

Satellite identification and parameters

Extended collection of information and parameters for COSMOS 1041.

Object identification

Identified? True

Debris? False

Object name: COSMOS 1041

International designator: 1978-091H

Object number (NORAD): 11050

Object ID (CCSDS): 11050

Country: COMMONWEALTH OF INDEPENDENT STATES (CIS)

Current information (Y/N): Y

RCS size: MEDIUM

Orbital parameters

Period: 115.819 minutes

Inclination: 74.0362 deg

SMA: 7870.69 km

Apoapsis: 1508.629 km

Periapsis: 1476.48 km

RAAN: 207.4346 deg

Eccentricy: 0.0020423

Argument of periapsis: 273.1531 deg

Mean anomaly: 151.7421 deg

Mean motion: 12.43321872 rev/day

Mean motion (dot): -0.00000017 rev/day2

B* drag term: -0.000011234244 1/REarth

Two-line elements (TLE)

Creation date: Oct. 30, 2025, 3:32 a.m.

Reference frame: TEME

Reference center: EARTH

Epoch: Oct. 29, 2025, 8:31 p.m. UTC

TLE line 0: 0 COSMOS 1041

TLE line 1: 1 11050U 78091H 25302.85554330 -.00000017 00000-0 -11234-4 0 9992

TLE line 2: 2 11050 74.0362 207.4346 0020423 273.1531 151.7421 12.43321872136453

Live tracking on map

Real-time ground track for satellite COSMOS 1041.

In-orbit conjunctions

There are no conjunctions computed for COSMOS 1041, at the moment. Check back to stay up to date, as we update our databases every day.

Go to all conjunctions

Associated space launch

Military communications satellites

COSMOS 1041 was lifted into orbit during the mission ‘Kosmos-3M | Strela-1M 153-160’, on board a Kosmos-3M space rocket.

The launch took place on Oct. 4, 1978, 3:49 a.m. from 132/1 (132L).

For more information about the launch, click the button.

Launch to space Kosmos-3M | Strela-1M 153-160
Kosmos-3M | Strela-1M 153-160

Agency: N/A

Status: Launch Successful

Launch date: Oct. 4, 1978, 3:49 a.m. UTC

Rocket: Kosmos-3M

Launch pad: 132/1 (132L)

Location: Plesetsk Cosmodrome, Russian Federation

...

Latest news about this satellite

There are no fresh news available about this satellite. Check back as we update our databases every day.


Newsletter sign-up

Weekly statistics, charts and insights to help you stay on top of the space industry.